Location: Newark
(13.6797°N, 8.5297°E)
Time: 13:25:20
(UTC+00:00)

SR - Pass Details

Date: 30 January 2020
Orbit: 575 x 880 km, 66.7° (Epoch: 24 February)

Event Time Altitude Azimuth Distance (km) Brightness Sun altitude
Rises 19:43:58 0° 218° (SW) 3,273 ? -33.5°
Reaches altitude 10° 19:46:28 10° 226° (SW) 2,388 ? -34.1°
Enters shadow 19:51:13 38° 284° (WNW) 1,265 ? -35.2°
Maximum altitude 19:51:35 38° 293° (WNW) 1,259 - -35.3°
Drops below altitude 10° 19:56:59 10° 1° (N) 2,512 - -36.6°
Sets 19:59:41 0° 9° (N) 3,463 - -37.2°
